START_TIME,STEP,MOV.,M29,t_acc.,H22,t_acc.,H26,t_acc.,H30,t_acc.
1979-07-19 03:00:31.780 ,1,0,0.,24.0,0.,24.0,0.,24.0,0.,24.0
1979-07-19 03:00:55.780 ,2,1,0.,24.0,0.,24.0,0.,24.0,0.,24.0
1979-07-19 03:01:19.780 ,2,0,0.,24.0,0.,24.0,0.,24.0,0.,24.0
1979-07-19 03:01:43.780 ,3,1,0.,24.0,0.,24.0,0.,24.0,0.,24.0
1979-07-19 03:02:07.780 ,3,0,0.,24.0,0.,24.0,0.,24.0,0.,24.0
1979-07-19 03:02:31.780 ,4,1,0.,24.0,0.,24.0,0.,24.0,0.,24.0
1979-07-19 03:02:55.780 ,4,0,0.,24.0,0.,24.0,0.,24.0,0.,24.0
1979-07-19 03:03:19.780 ,5,1,0.,24.0,0.,24.0,0.,24.0,0.,24.0
1979-07-19 03:03:43.780 ,5,0,0.,24.0,0.,24.0,0.,24.0,0.,24.0
1979-07-19 03:04:07.780 ,6,1,0.,24.0,0.,24.0,0.,24.0,0.,24.0
1979-07-19 03:04:31.780 ,6,0,0.,24.0,0.,24.0,0.,24.0,0.,24.0
1979-07-19 03:04:55.780 ,7,1,0.,24.0,0.,24.0,0.,24.0,0.,24.0
1979-07-19 03:05:19.780 ,7,0,0.,24.0,0.,24.0,0.,24.0,0.,24.0
1979-07-19 03:05:43.780 ,7,1,0.,24.0,0.,24.0,0.,24.0,0.,24.0
1979-07-19 03:06:07.780 ,7,0,0.,24.0,0.,24.0,0.,24.0,0.,24.0
1979-07-19 03:06:31.780 ,6,1,0.,24.0,0.,24.0,0.,24.0,0.,24.0
1979-07-19 03:06:55.780 ,6,0,0.,24.0,0.,24.0,0.,24.0,0.,24.0
1979-07-19 03:07:19.780 ,5,1,0.,24.0,0.,24.0,0.,24.0,0.,24.0
1979-07-19 03:07:43.780 ,5,0,0.,24.0,0.,24.0,0.,24.0,0.,24.0
1979-07-19 03:08:07.780 ,4,1,0.,24.0,0.,24.0,0.,24.0,0.,24.0
1979-07-19 03:08:31.780 ,4,0,0.,24.0,0.,24.0,0.,24.0,0.,24.0
1979-07-19 03:08:55.780 ,3,1,0.,24.0,0.,24.0,0.,24.0,0.,24.0
1979-07-19 03:09:19.780 ,3,0,0.,24.0,0.,24.0,0.,24.0,0.,24.0
1979-07-19 03:09:43.780 ,2,1,0.,24.0,0.,24.0,0.,24.0,0.,24.0
1979-07-19 03:10:07.780 ,2,0,0.,24.0,0.,24.0,0.,24.0,0.,24.0
1979-07-19 03:10:31.780 ,1,1,0.,24.0,0.,24.0,0.,24.0,0.,24.0
1979-07-19 03:10:55.780 ,1,0,0.,24.0,0.,24.0,0.,24.0,0.,24.0
1979-07-19 03:11:19.780 ,0,1,0.,24.0,0.,24.0,0.,24.0,0.,24.0
1979-07-19 03:11:43.780 ,0,0,0.,24.0,0.,24.0,0.,24.0,0.,24.0
1979-07-19 03:12:07.780 ,0,1,0.,24.0,0.,24.0,0.,24.0,0.,24.0
1979-07-19 03:12:31.780 ,0,0,0.,24.0,0.,24.0,0.,24.0,0.,24.0
1979-07-19 03:12:55.780 ,1,1,0.,24.0,0.,24.0,0.,24.0,0.,24.0
1979-07-19 03:13:19.780 ,1,0,0.,24.0,0.,24.0,0.,24.0,0.,24.0
1979-07-19 03:13:43.780 ,2,1,0.,24.0,0.,24.0,0.,24.0,0.,24.0
1979-07-19 03:14:07.780 ,2,0,0.,24.0,0.,24.0,0.,24.0,0.,24.0
1979-07-19 03:14:31.780 ,3,1,0.,24.0,0.,24.0,0.,24.0,0.,24.0
1979-07-19 03:14:55.780 ,3,0,0.,24.0,0.,24.0,0.,24.0,0.,24.0
1979-07-19 03:15:19.780 ,4,1,0.,24.0,0.,24.0,0.,24.0,0.,24.0
1979-07-19 03:15:43.780 ,4,0,0.,24.0,0.,24.0,0.,24.0,0.,24.0
1979-07-19 03:16:07.780 ,5,1,0.,24.0,0.,24.0,0.,24.0,0.,24.0
1979-07-19 03:16:31.780 ,5,0,0.,24.0,0.,24.0,0.,24.0,0.,24.0
1979-07-19 03:16:55.780 ,6,1,0.,24.0,0.,24.0,0.,24.0,0.,24.0
1979-07-19 03:17:19.780 ,6,0,0.,24.0,0.,24.0,0.,24.0,0.,24.0
1979-07-19 03:17:43.780 ,7,1,0.,24.0,0.,24.0,0.,24.0,0.,24.0
1979-07-19 03:18:07.780 ,7,0,0.,24.0,0.,24.0,0.,24.0,0.,24.0
1979-07-19 03:18:31.780 ,7,1,0.,24.0,0.,24.0,0.,24.0,0.,24.0
1979-07-19 03:18:55.780 ,7,0,0.,24.0,0.,24.0,0.,24.0,0.,24.0
1979-07-19 03:19:19.780 ,6,1,0.,24.0,0.,24.0,0.,24.0,0.,24.0
1979-07-19 03:19:43.780 ,6,0,0.,24.0,0.,24.0,0.,24.0,0.,24.0
1979-07-19 03:20:07.780 ,5,1,0.,24.0,0.,24.0,0.,24.0,0.,24.0
1979-07-19 03:20:31.780 ,5,0,0.,24.0,0.,24.0,0.,24.0,0.,24.0
1979-07-19 03:20:55.780 ,4,1,0.,24.0,0.,24.0,0.,24.0,0.,24.0
1979-07-19 03:21:19.780 ,4,0,0.,24.0,0.,24.0,0.,24.0,0.,24.0
1979-07-19 03:21:43.780 ,3,1,0.,24.0,0.,24.0,0.,24.0,0.,24.0
1979-07-19 03:22:07.780 ,3,0,0.,24.0,0.,24.0,0.,24.0,0.,24.0
1979-07-19 03:22:31.780 ,2,1,0.,24.0,0.,24.0,0.,24.0,0.,24.0
1979-07-19 03:22:55.780 ,2,0,0.,24.0,0.,24.0,0.,24.0,0.,24.0
1979-07-19 03:23:19.780 ,1,1,0.,24.0,0.,24.0,0.,24.0,0.,24.0
1979-07-19 03:23:43.780 ,1,0,0.,24.0,0.,24.0,0.,24.0,0.,24.0
1979-07-19 03:24:07.780 ,0,1,0.,24.0,0.,24.0,0.,24.0,0.,24.0
1979-07-19 03:24:31.780 ,0,0,0.,24.0,0.,24.0,0.,24.0,0.,24.0
1979-07-19 03:24:55.780 ,0,1,0.,24.0,0.,24.0,0.,24.0,0.,24.0
1979-07-19 03:25:19.780 ,0,0,0.,24.0,0.,24.0,0.,24.0,0.,24.0
1979-07-19 03:25:43.780 ,1,1,0.,24.0,0.,24.0,0.,24.0,0.,24.0
1979-07-19 03:26:07.780 ,1,0,0.,24.0,0.,24.0,0.,24.0,0.,24.0
1979-07-19 03:26:31.780 ,2,1,0.,24.0,0.,24.0,0.,24.0,0.,24.0
1979-07-19 03:26:55.780 ,2,0,0.,24.0,0.,24.0,0.,24.0,0.,24.0
1979-07-19 03:27:19.780 ,3,1,0.,24.0,0.,24.0,0.,24.0,0.,24.0
1979-07-19 03:27:43.780 ,3,0,0.,24.0,0.,24.0,0.,24.0,0.,24.0
1979-07-19 03:28:07.780 ,4,1,0.,24.0,0.,24.0,0.,24.0,0.,24.0
1979-07-19 03:28:31.780 ,4,0,0.,24.0,0.,24.0,0.,24.0,0.,24.0
1979-07-19 03:28:55.780 ,5,1,0.,24.0,0.,24.0,0.,24.0,0.,24.0
1979-07-19 03:29:19.780 ,5,0,0.,24.0,0.,24.0,0.,24.0,0.,24.0
1979-07-19 03:29:43.780 ,6,1,0.,24.0,0.,24.0,0.,24.0,0.,24.0
1979-07-19 03:30:07.780 ,6,0,0.,24.0,0.,24.0,0.,24.0,0.,24.0
1979-07-19 03:30:31.780 ,7,0,0.,24.0,0.,24.0,0.,24.0,0.,24.0
1979-07-19 03:30:55.780 ,7,0,0.,24.0,0.,24.0,0.,24.0,0.,24.0
1979-07-19 03:31:19.780 ,5,1,0.,24.0,0.,24.0,0.,24.0,0.,24.0
1979-07-19 03:31:43.780 ,1,1,0.,24.0,0.,24.0,0.,24.0,0.,24.0
1979-07-19 03:32:07.780 ,2,1,0.,24.0,0.,24.0,0.,24.0,0.,24.0
1979-07-19 03:32:31.780 ,6,1,0.,24.0,0.,24.0,0.,24.0,0.,24.0
1979-07-19 03:32:55.780 ,5,1,0.,24.0,0.,24.0,0.,24.0,0.,24.0
1979-07-19 03:33:19.780 ,1,1,0.,24.0,0.,24.0,0.,24.0,0.,24.0
1979-07-19 03:33:43.780 ,2,1,0.,24.0,0.,24.0,0.,24.0,0.,24.0
1979-07-19 03:34:07.780 ,6,1,0.,24.0,0.,24.0,0.,24.0,0.,24.0
1979-07-19 03:34:31.770 ,5,1,0.,24.0,0.,24.0,0.,24.0,0.,24.0
1979-07-19 03:34:55.770 ,1,1,0.,24.0,0.,24.0,0.,24.0,0.,24.0
1979-07-19 03:35:19.770 ,2,1,0.,24.0,0.,24.0,0.,24.0,0.,24.0
1979-07-19 03:35:43.770 ,6,1,0.,24.0,0.,24.0,0.,24.0,0.,24.0
1979-07-19 03:36:07.770 ,5,1,0.,24.0,0.,24.0,0.,24.0,0.,24.0
1979-07-19 03:36:31.770 ,1,1,0.,24.0,0.,24.0,0.,24.0,0.,24.0
1979-07-19 03:36:55.770 ,2,1,0.,24.0,0.,24.0,0.,24.0,0.,24.0
1979-07-19 03:37:19.770 ,6,1,0.,24.0,0.,24.0,0.,24.0,0.,24.0
1979-07-19 03:37:43.770 ,5,1,0.,24.0,0.,24.0,0.,24.0,0.,24.0
1979-07-19 03:38:07.770 ,1,1,0.,24.0,0.,24.0,0.,24.0,0.,24.0
1979-07-19 03:38:31.770 ,2,1,0.,24.0,0.,24.0,0.,24.0,0.,24.0
1979-07-19 03:38:55.770 ,6,1,0.,24.0,0.,24.0,0.,24.0,0.,24.0
1979-07-19 03:39:19.770 ,5,1,0.,24.0,0.,24.0,0.,24.0,0.,24.0
1979-07-19 03:39:43.770 ,1,1,0.,24.0,0.,24.0,0.,24.0,0.,24.0
1979-07-19 03:40:07.770 ,2,1,0.,24.0,0.,24.0,0.,24.0,0.,24.0
1979-07-19 03:40:31.770 ,6,1,0.,24.0,0.,24.0,0.,24.0,0.,24.0
1979-07-19 03:40:55.770 ,5,1,0.,24.0,0.,24.0,0.,24.0,0.,24.0
1979-07-19 03:41:19.770 ,1,1,0.,24.0,0.,24.0,0.,24.0,0.,24.0
1979-07-19 03:41:43.770 ,0,0,0.,24.0,0.,24.0,0.,24.0,0.,24.0
1979-07-19 03:42:07.770 ,0,0,0.,24.0,0.,24.0,0.,24.0,0.,24.0
1979-07-19 03:42:31.770 ,5,1,0.,24.0,0.,24.0,0.,24.0,0.,24.0
1979-07-19 03:42:55.770 ,5,0,0.,24.0,0.,24.0,0.,24.0,0.,24.0
1979-07-19 03:43:19.770 ,4,1,0.,24.0,0.,24.0,0.,24.0,0.,24.0
1979-07-19 03:43:43.770 ,4,0,0.,24.0,0.,24.0,0.,24.0,0.,24.0
1979-07-19 03:44:07.770 ,3,1,0.,24.0,0.,24.0,0.,24.0,0.,24.0
1979-07-19 03:44:31.770 ,3,0,0.,24.0,0.,24.0,0.,24.0,0.,24.0
1979-07-19 03:44:55.770 ,2,1,0.,24.0,0.,24.0,0.,24.0,0.,24.0
1979-07-19 03:45:19.770 ,2,0,0.,24.0,0.,24.0,0.,24.0,0.,24.0
1979-07-19 03:45:43.770 ,1,1,0.,24.0,0.,24.0,0.,24.0,0.,24.0
1979-07-19 03:46:07.770 ,1,0,0.,24.0,0.,24.0,0.,24.0,0.,24.0
1979-07-19 03:46:31.770 ,0,1,0.,24.0,0.,24.0,0.,24.0,0.,24.0
1979-07-19 03:46:55.770 ,0,0,0.,24.0,0.,24.0,0.,24.0,0.,24.0
1979-07-19 03:47:19.770 ,0,1,0.,24.0,0.,24.0,0.,24.0,0.,24.0
1979-07-19 03:47:43.770 ,0,0,0.,24.0,0.,24.0,0.,24.0,0.,24.0
1979-07-19 03:48:07.770 ,1,1,0.,24.0,0.,24.0,0.,24.0,0.,24.0
1979-07-19 03:48:31.770 ,1,0,0.,24.0,0.,24.0,0.,24.0,0.,24.0
1979-07-19 03:48:55.770 ,2,1,0.,24.0,0.,24.0,0.,24.0,0.,24.0
1979-07-19 03:49:19.770 ,2,0,0.,24.0,0.,24.0,0.,24.0,0.,24.0
1979-07-19 03:49:43.770 ,3,1,0.,24.0,0.,24.0,0.,24.0,0.,24.0
1979-07-19 03:50:07.770 ,3,0,0.,24.0,0.,24.0,0.,24.0,0.,24.0
1979-07-19 03:50:31.770 ,4,1,0.,24.0,0.,24.0,0.,24.0,0.,24.0
1979-07-19 03:50:55.770 ,4,0,0.,24.0,0.,24.0,0.,24.0,0.,24.0
1979-07-19 03:51:19.770 ,5,1,0.,24.0,0.,24.0,0.,24.0,0.,24.0
1979-07-19 03:51:43.770 ,5,0,0.,24.0,0.,24.0,0.,24.0,0.,24.0
1979-07-19 03:52:07.770 ,6,1,0.,24.0,0.,24.0,0.,24.0,0.,24.0
1979-07-19 03:52:31.770 ,6,0,0.,24.0,0.,24.0,0.,24.0,0.,24.0
1979-07-19 03:52:55.770 ,7,1,0.,24.0,0.,24.0,0.,24.0,0.,24.0
1979-07-19 03:53:19.770 ,7,0,0.,24.0,0.,24.0,0.,24.0,0.,24.0
1979-07-19 03:53:43.770 ,7,1,0.,24.0,0.,24.0,0.,24.0,0.,24.0
1979-07-19 03:54:07.770 ,7,0,0.,24.0,0.,24.0,0.,24.0,0.,24.0
1979-07-19 03:54:31.770 ,6,1,0.,24.0,0.,24.0,0.,24.0,0.,24.0
1979-07-19 03:54:55.770 ,6,0,0.,24.0,0.,24.0,0.,24.0,0.,24.0
1979-07-19 03:55:19.770 ,5,1,0.,24.0,0.,24.0,0.,24.0,0.,24.0
1979-07-19 03:55:43.770 ,5,0,0.,24.0,0.,24.0,0.,24.0,0.,24.0
1979-07-19 03:56:07.770 ,4,1,0.,24.0,0.,24.0,0.,24.0,0.,24.0
1979-07-19 03:56:31.770 ,4,0,0.,24.0,0.,24.0,0.,24.0,0.,24.0
1979-07-19 03:56:55.770 ,3,1,0.,24.0,0.,24.0,0.,24.0,0.,24.0
1979-07-19 03:57:19.770 ,3,0,0.,24.0,0.,24.0,0.,24.0,0.,24.0
1979-07-19 03:57:43.770 ,2,1,0.,24.0,0.,24.0,0.,24.0,0.,24.0
1979-07-19 03:58:07.770 ,2,0,0.,24.0,0.,24.0,0.,24.0,0.,24.0
1979-07-19 03:58:31.770 ,1,1,0.,24.0,0.,24.0,0.,24.0,0.,24.0
1979-07-19 03:58:55.770 ,1,0,0.,24.0,0.,24.0,0.,24.0,0.,24.0
1979-07-19 03:59:19.770 ,0,1,0.,24.0,0.,24.0,0.,24.0,0.,24.0
1979-07-19 03:59:43.770 ,0,0,0.,24.0,0.,24.0,0.,24.0,0.,24.0
1979-07-19 04:00:07.770 ,0,1,0.,24.0,0.,24.0,0.,24.0,0.,24.0
1979-07-19 04:00:31.770 ,0,0,0.,24.0,0.,24.0,0.,24.0,0.,24.0
1979-07-19 04:00:55.770 ,1,1,0.,24.0,0.,24.0,0.,24.0,0.,24.0
1979-07-19 04:01:19.770 ,0,0,0.,24.0,0.,24.0,0.,24.0,0.,24.0
1979-07-19 04:01:58.170 ,0,0,,0,,0,,0,,0
1979-07-19 04:02:07.770 ,0,0,0.,24.0,0.,24.0,0.,24.0,0.,24.0
1979-07-19 04:02:31.770 ,3,1,0.,24.0,0.,24.0,0.,24.0,0.,24.0
1979-07-19 04:02:55.770 ,3,0,0.,24.0,0.,24.0,0.,24.0,0.,24.0
1979-07-19 04:03:19.770 ,4,1,0.,24.0,0.,24.0,0.,24.0,0.,24.0
1979-07-19 04:03:43.770 ,4,0,0.,24.0,0.,24.0,0.,24.0,0.,24.0
1979-07-19 04:04:07.770 ,5,1,0.,24.0,0.,24.0,0.,24.0,0.,24.0
1979-07-19 04:04:31.770 ,5,0,0.,24.0,0.,24.0,0.,24.0,0.,24.0
1979-07-19 04:04:55.770 ,6,1,0.,24.0,0.,24.0,0.,24.0,0.,24.0
1979-07-19 04:05:19.770 ,6,0,0.,24.0,0.,24.0,0.,24.0,0.,24.0
1979-07-19 04:05:43.770 ,7,1,0.,24.0,0.,24.0,0.,24.0,0.,24.0
1979-07-19 04:06:07.770 ,7,0,0.,24.0,0.,24.0,0.,24.0,0.,24.0
1979-07-19 04:06:31.770 ,7,1,0.,24.0,0.,24.0,0.,24.0,0.,24.0
1979-07-19 04:06:55.770 ,7,0,0.,24.0,0.,24.0,0.,24.0,0.,24.0
1979-07-19 04:07:19.770 ,6,0,,0,,0,,0,,0
1979-07-19 04:07:43.770 ,6,0,0.,24.0,0.,24.0,0.,24.0,0.,24.0
1979-07-19 04:08:07.770 ,5,1,0.,24.0,0.,24.0,0.,24.0,0.,24.0
1979-07-19 04:08:31.770 ,5,0,0.,24.0,0.,24.0,0.,24.0,0.,24.0
1979-07-19 04:08:55.770 ,4,1,0.,24.0,0.,24.0,0.,24.0,0.,24.0
1979-07-19 04:09:19.770 ,4,0,0.,24.0,0.,24.0,0.,24.0,0.,24.0
1979-07-19 04:09:43.770 ,3,1,0.,24.0,0.,24.0,0.,24.0,0.,24.0
1979-07-19 04:10:07.770 ,3,0,0.,24.0,0.,24.0,0.,24.0,0.,24.0
1979-07-19 04:10:31.770 ,2,1,0.,24.0,0.,24.0,0.,24.0,0.,24.0
1979-07-19 04:10:55.770 ,2,0,0.,24.0,0.,24.0,0.,24.0,0.,24.0
1979-07-19 04:11:19.770 ,1,1,0.,24.0,0.,24.0,0.,24.0,0.,24.0
1979-07-19 04:11:43.770 ,1,0,0.,24.0,0.,24.0,0.,24.0,0.,24.0
1979-07-19 04:12:07.770 ,0,1,0.,24.0,0.,24.0,0.,24.0,0.,24.0
1979-07-19 04:12:31.770 ,0,0,0.,24.0,0.,24.0,0.,24.0,0.,24.0
1979-07-19 04:12:55.770 ,0,1,0.,24.0,0.,24.0,0.,24.0,0.,24.0
1979-07-19 04:13:19.770 ,0,0,0.,24.0,0.,24.0,0.,24.0,0.,24.0
1979-07-19 04:13:43.770 ,1,1,0.,24.0,0.,24.0,0.,24.0,0.,24.0
1979-07-19 04:14:07.770 ,1,0,0.,24.0,0.,24.0,0.,24.0,0.,24.0
1979-07-19 04:14:31.770 ,2,1,0.,24.0,0.,24.0,0.,24.0,0.,24.0
1979-07-19 04:14:55.770 ,2,0,0.,24.0,0.,24.0,0.,24.0,0.,24.0
1979-07-19 04:15:19.770 ,3,1,0.,24.0,0.,24.0,0.,24.0,0.,24.0
1979-07-19 04:15:43.770 ,3,0,0.,24.0,0.,24.0,0.,24.0,0.,24.0
1979-07-19 04:16:07.770 ,4,1,0.,24.0,0.,24.0,0.,24.0,0.,24.0
1979-07-19 04:16:31.770 ,4,0,0.,24.0,0.,24.0,0.,24.0,0.,24.0
1979-07-19 04:16:55.770 ,5,1,0.,24.0,0.,24.0,0.,24.0,0.,24.0
1979-07-19 04:17:19.770 ,5,0,0.,24.0,0.,24.0,0.,24.0,0.,24.0
1979-07-19 04:17:43.770 ,6,1,0.,24.0,0.,24.0,0.,24.0,0.,24.0
1979-07-19 04:18:07.770 ,6,0,0.,24.0,0.,24.0,0.,24.0,0.,24.0
1979-07-19 04:18:31.770 ,7,0,0.,24.0,0.,24.0,0.,24.0,0.,24.0
1979-07-19 04:18:55.770 ,7,0,0.,24.0,0.,24.0,0.,24.0,0.,24.0
1979-07-19 04:19:19.770 ,5,1,0.,24.0,0.,24.0,0.,24.0,0.,24.0
1979-07-19 04:19:43.770 ,1,1,0.,24.0,0.,24.0,0.,24.0,0.,24.0
1979-07-19 04:20:07.770 ,2,1,0.,24.0,0.,24.0,0.,24.0,0.,24.0
1979-07-19 04:20:31.770 ,6,1,0.,24.0,0.,24.0,0.,24.0,0.,24.0
1979-07-19 04:20:55.770 ,5,1,0.,24.0,0.,24.0,0.,24.0,0.,24.0
1979-07-19 04:21:19.770 ,1,1,0.,24.0,0.,24.0,0.,24.0,0.,24.0
1979-07-19 04:21:43.770 ,2,1,0.,24.0,0.,24.0,0.,24.0,0.,24.0
1979-07-19 04:22:07.770 ,6,1,0.,24.0,0.,24.0,0.,24.0,0.,24.0
1979-07-19 04:22:31.770 ,5,1,0.,24.0,0.,24.0,0.,24.0,0.,24.0
1979-07-19 04:22:55.770 ,1,1,0.,24.0,0.,24.0,0.,24.0,0.,24.0
1979-07-19 04:23:19.770 ,2,1,0.,24.0,0.,24.0,0.,24.0,0.,24.0
1979-07-19 04:23:43.770 ,6,1,0.,24.0,0.,24.0,0.,24.0,0.,24.0
1979-07-19 04:24:07.770 ,5,1,0.,24.0,0.,24.0,0.,24.0,0.,24.0
1979-07-19 04:24:31.770 ,1,1,0.,24.0,0.,24.0,0.,24.0,0.,24.0
1979-07-19 04:24:55.770 ,2,1,0.,24.0,0.,24.0,0.,24.0,0.,24.0
1979-07-19 04:25:19.770 ,6,1,0.,24.0,0.,24.0,0.,24.0,0.,24.0
1979-07-19 04:25:43.770 ,5,1,0.,24.0,0.,24.0,0.,24.0,0.,24.0
1979-07-19 04:26:07.770 ,1,1,0.,24.0,0.,24.0,0.,24.0,0.,24.0
1979-07-19 04:26:31.770 ,2,1,0.,24.0,0.,24.0,0.,24.0,0.,24.0
1979-07-19 04:26:55.770 ,6,1,0.,24.0,0.,24.0,0.,24.0,0.,24.0
1979-07-19 04:27:19.770 ,5,1,0.,24.0,0.,24.0,0.,24.0,0.,24.0
1979-07-19 04:27:43.770 ,1,1,0.,24.0,0.,24.0,0.,24.0,0.,24.0
1979-07-19 04:28:07.770 ,2,1,0.,24.0,0.,24.0,0.,24.0,0.,24.0
1979-07-19 04:28:31.770 ,6,1,0.,24.0,0.,24.0,0.,24.0,0.,24.0
1979-07-19 04:28:55.770 ,5,1,0.,24.0,0.,24.0,0.,24.0,0.,24.0
1979-07-19 04:29:19.770 ,1,1,0.,24.0,0.,24.0,0.,24.0,0.,24.0
1979-07-19 04:29:43.770 ,0,0,0.,24.0,0.,24.0,0.,24.0,0.,24.0
1979-07-19 04:30:07.770 ,0,0,0.,24.0,0.,24.0,0.,24.0,0.,24.0
1979-07-19 04:30:31.770 ,5,1,0.,24.0,0.,24.0,0.,24.0,0.,24.0
1979-07-19 04:30:55.770 ,5,0,0.,24.0,0.,24.0,0.,24.0,0.,24.0
1979-07-19 04:31:19.770 ,4,1,0.,24.0,0.,24.0,0.,24.0,0.,24.0
1979-07-19 04:31:43.770 ,4,0,0.,24.0,0.,24.0,0.,24.0,0.,24.0
1979-07-19 04:32:07.770 ,3,1,0.,24.0,0.,24.0,0.,24.0,0.,24.0
1979-07-19 04:32:31.770 ,3,0,0.,24.0,0.,24.0,0.,24.0,0.,24.0
1979-07-19 04:32:55.770 ,2,1,0.,24.0,0.,24.0,0.,24.0,0.,24.0
1979-07-19 04:33:19.770 ,2,0,0.,24.0,0.,24.0,0.,24.0,0.,24.0
1979-07-19 04:33:43.770 ,1,1,0.,24.0,0.,24.0,0.,24.0,0.,24.0
1979-07-19 04:34:07.770 ,1,0,0.,24.0,0.,24.0,0.,24.0,0.,24.0
1979-07-19 04:34:31.770 ,0,1,0.,24.0,0.,24.0,0.,24.0,0.,24.0
1979-07-19 04:34:55.770 ,0,0,0.,24.0,0.,24.0,0.,24.0,0.,24.0
1979-07-19 04:35:19.770 ,0,1,0.,24.0,0.,24.0,0.,24.0,0.,24.0
1979-07-19 04:35:43.770 ,0,0,0.,24.0,0.,24.0,0.,24.0,0.,24.0
1979-07-19 04:36:07.770 ,1,1,0.,24.0,0.,24.0,0.,24.0,0.,24.0
1979-07-19 04:36:31.770 ,1,0,0.,24.0,0.,24.0,0.,24.0,0.,24.0
1979-07-19 04:36:55.770 ,2,1,0.,24.0,0.,24.0,0.,24.0,0.,24.0
1979-07-19 04:37:19.770 ,2,0,0.,24.0,0.,24.0,0.,24.0,0.,24.0
1979-07-19 04:37:43.770 ,3,1,0.,24.0,0.,24.0,0.,24.0,0.,24.0
1979-07-19 04:38:07.770 ,3,0,0.,24.0,0.,24.0,0.,24.0,0.,24.0
1979-07-19 04:38:31.770 ,4,1,0.,24.0,0.,24.0,0.,24.0,0.,24.0
1979-07-19 04:38:55.770 ,4,0,0.,24.0,0.,24.0,0.,24.0,0.,24.0
1979-07-19 04:39:19.770 ,5,1,0.,24.0,0.,24.0,0.,24.0,0.,24.0
1979-07-19 04:39:43.770 ,5,0,0.,24.0,0.,24.0,0.,24.0,0.,24.0
1979-07-19 04:40:07.770 ,6,1,0.,24.0,0.,24.0,0.,24.0,0.,24.0
1979-07-19 04:40:31.770 ,6,0,0.,24.0,0.,24.0,0.,24.0,0.,24.0
1979-07-19 04:40:55.770 ,7,1,0.,24.0,0.,24.0,0.,24.0,0.,24.0
1979-07-19 04:41:19.770 ,7,0,0.,24.0,0.,24.0,0.,24.0,0.,24.0
1979-07-19 04:41:43.770 ,7,1,0.,24.0,0.,24.0,0.,24.0,0.,24.0
1979-07-19 04:42:07.770 ,7,0,0.,24.0,0.,24.0,0.,24.0,0.,24.0
1979-07-19 04:42:31.770 ,6,1,0.,24.0,0.,24.0,0.,24.0,0.,24.0
1979-07-19 04:42:55.770 ,6,0,0.,24.0,0.,24.0,0.,24.0,0.,24.0
1979-07-19 04:43:19.770 ,5,1,0.,24.0,0.,24.0,0.,24.0,0.,24.0
1979-07-19 04:43:43.770 ,5,0,0.,24.0,0.,24.0,0.,24.0,0.,24.0
1979-07-19 04:44:07.770 ,4,1,0.,24.0,0.,24.0,0.,24.0,0.,24.0
1979-07-19 04:44:31.770 ,4,0,0.,24.0,0.,24.0,0.,24.0,0.,24.0
1979-07-19 04:44:55.770 ,3,1,0.,24.0,0.,24.0,0.,24.0,0.,24.0
1979-07-19 04:45:19.770 ,3,0,0.,24.0,0.,24.0,0.,24.0,0.,24.0
1979-07-19 04:45:43.770 ,2,1,0.,24.0,0.,24.0,0.,24.0,0.,24.0
1979-07-19 04:46:07.770 ,2,0,0.,24.0,0.,24.0,0.,24.0,0.,24.0
1979-07-19 04:46:31.770 ,1,1,0.,24.0,0.,24.0,0.,24.0,0.,24.0
1979-07-19 04:46:55.770 ,1,0,0.,24.0,0.,24.0,0.,24.0,0.,24.0
1979-07-19 04:47:19.770 ,0,1,0.,24.0,0.,24.0,0.,24.0,0.,24.0
1979-07-19 04:47:43.770 ,0,0,0.,24.0,0.,24.0,0.,24.0,0.,24.0
1979-07-19 04:48:07.770 ,0,1,0.,24.0,0.,24.0,0.,24.0,0.,24.0
1979-07-19 04:48:31.770 ,0,0,0.,24.0,0.,24.0,0.,24.0,0.,24.0
1979-07-19 04:48:55.770 ,1,1,0.,24.0,0.,24.0,0.,24.0,0.,24.0
1979-07-19 04:49:19.770 ,1,0,0.,24.0,0.,24.0,0.,24.0,0.,24.0
1979-07-19 04:49:43.770 ,2,1,0.,24.0,0.,24.0,0.,24.0,0.,24.0
1979-07-19 04:50:07.770 ,2,0,0.,24.0,0.,24.0,0.,24.0,0.,24.0
1979-07-19 04:50:31.770 ,3,1,0.,24.0,0.,24.0,0.,24.0,0.,24.0
1979-07-19 04:50:55.770 ,3,0,0.,24.0,0.,24.0,0.,24.0,0.,24.0
1979-07-19 04:51:19.770 ,4,1,0.,24.0,0.,24.0,0.,24.0,0.,24.0
1979-07-19 04:51:43.770 ,4,0,0.,24.0,0.,24.0,0.,24.0,0.,24.0
1979-07-19 04:52:07.770 ,5,1,0.,24.0,0.,24.0,0.,24.0,0.,24.0
1979-07-19 04:52:31.770 ,5,0,0.,24.0,0.,24.0,0.,24.0,0.,24.0
1979-07-19 04:52:55.770 ,6,1,0.,24.0,0.,24.0,0.,24.0,0.,24.0
1979-07-19 04:53:19.770 ,6,0,0.,24.0,0.,24.0,0.,24.0,0.,24.0
1979-07-19 04:53:43.770 ,7,1,0.,24.0,0.,24.0,0.,24.0,0.,24.0
1979-07-19 04:54:07.770 ,7,0,0.,24.0,0.,24.0,0.,24.0,0.,24.0
1979-07-19 04:54:31.770 ,7,1,0.,24.0,0.,24.0,0.,24.0,0.,24.0
1979-07-19 04:54:55.770 ,7,0,0.,24.0,0.,24.0,0.,24.0,0.,24.0
1979-07-19 04:55:19.770 ,6,1,0.,24.0,0.,24.0,0.,24.0,0.,24.0
1979-07-19 04:55:43.770 ,6,0,0.,24.0,0.,24.0,0.,24.0,0.,24.0
1979-07-19 04:56:07.770 ,5,1,0.,24.0,0.,24.0,0.,24.0,0.,24.0
1979-07-19 04:56:31.770 ,5,0,0.,24.0,0.,24.0,0.,24.0,0.,24.0
1979-07-19 04:56:55.770 ,4,1,0.,24.0,0.,24.0,0.,24.0,0.,24.0
1979-07-19 04:57:19.770 ,4,0,0.,24.0,0.,24.0,0.,24.0,0.,24.0
1979-07-19 04:57:43.770 ,3,1,0.,24.0,0.,24.0,0.,24.0,0.,24.0
1979-07-19 04:58:07.770 ,3,0,0.,24.0,0.,24.0,0.,24.0,0.,24.0
1979-07-19 04:58:31.770 ,2,1,0.,24.0,0.,24.0,0.,24.0,0.,24.0
1979-07-19 04:58:55.770 ,2,0,0.,24.0,0.,24.0,0.,24.0,0.,24.0
1979-07-19 04:59:19.770 ,1,1,0.,24.0,0.,24.0,0.,24.0,0.,24.0
1979-07-19 04:59:43.770 ,1,0,0.,24.0,0.,24.0,0.,24.0,0.,24.0
1979-07-19 05:00:07.770 ,0,1,0.,24.0,0.,24.0,0.,24.0,0.,24.0
1979-07-19 05:00:31.770 ,0,0,0.,24.0,0.,24.0,0.,24.0,0.,24.0
1979-07-19 05:00:55.770 ,0,1,0.,24.0,0.,24.0,0.,24.0,0.,24.0
1979-07-19 05:01:19.770 ,0,0,0.,24.0,0.,24.0,0.,24.0,0.,24.0
1979-07-19 05:01:43.770 ,1,1,0.,24.0,0.,24.0,0.,24.0,0.,24.0
1979-07-19 05:02:07.770 ,1,0,0.,24.0,0.,24.0,0.,24.0,0.,24.0
1979-07-19 05:02:31.770 ,2,1,0.,24.0,0.,24.0,0.,24.0,0.,24.0
1979-07-19 05:02:55.770 ,2,0,0.,24.0,0.,24.0,0.,24.0,0.,24.0
1979-07-19 05:03:19.770 ,3,1,0.,24.0,0.,24.0,0.,24.0,0.,24.0
1979-07-19 05:03:43.770 ,3,0,0.,24.0,0.,24.0,0.,24.0,0.,24.0
1979-07-19 05:04:07.770 ,4,1,0.,24.0,0.,24.0,0.,24.0,0.,24.0
1979-07-19 05:04:31.770 ,4,0,0.,24.0,0.,24.0,0.,24.0,0.,24.0
1979-07-19 05:04:55.770 ,5,1,0.,24.0,0.,24.0,0.,24.0,0.,24.0
1979-07-19 05:05:19.770 ,5,0,0.,24.0,0.,24.0,0.,24.0,0.,24.0
1979-07-19 05:05:43.770 ,6,1,0.,24.0,0.,24.0,0.,24.0,0.,24.0
1979-07-19 05:06:07.770 ,6,0,0.,24.0,0.,24.0,0.,24.0,0.,24.0
1979-07-19 05:06:31.770 ,7,0,0.,24.0,0.,24.0,0.,24.0,0.,24.0
1979-07-19 05:06:55.770 ,7,0,0.,24.0,0.,24.0,0.,24.0,0.,24.0
1979-07-19 05:07:19.770 ,5,1,0.,24.0,0.,24.0,0.,24.0,0.,24.0
1979-07-19 05:07:43.770 ,1,1,0.,24.0,0.,24.0,0.,24.0,0.,24.0
1979-07-19 05:08:07.770 ,2,1,0.,24.0,0.,24.0,0.,24.0,0.,24.0
1979-07-19 05:08:31.770 ,6,1,0.,24.0,0.,24.0,0.,24.0,0.,24.0
1979-07-19 05:08:55.770 ,5,1,0.,24.0,0.,24.0,0.,24.0,0.,24.0
1979-07-19 05:09:19.770 ,1,1,0.,24.0,0.,24.0,0.,24.0,0.,24.0
1979-07-19 05:09:43.770 ,2,1,0.,24.0,0.,24.0,0.,24.0,0.,24.0
1979-07-19 05:10:07.770 ,6,1,0.,24.0,0.,24.0,0.,24.0,0.,24.0
1979-07-19 05:10:31.770 ,5,1,0.,24.0,0.,24.0,0.,24.0,0.,24.0
1979-07-19 05:10:55.770 ,1,1,0.,24.0,0.,24.0,0.,24.0,0.,24.0
1979-07-19 05:11:19.770 ,2,1,0.,24.0,0.,24.0,0.,24.0,0.,24.0
1979-07-19 05:11:43.770 ,6,1,0.,24.0,0.,24.0,0.,24.0,0.,24.0
1979-07-19 05:12:07.770 ,5,1,0.,24.0,0.,24.0,0.,24.0,0.,24.0
1979-07-19 05:12:31.770 ,1,1,0.,24.0,0.,24.0,0.,24.0,0.,24.0
1979-07-19 05:12:55.770 ,2,1,0.,24.0,0.,24.0,0.,24.0,0.,24.0
1979-07-19 05:13:19.770 ,6,1,0.,24.0,0.,24.0,0.,24.0,0.,24.0
1979-07-19 05:13:43.770 ,5,1,0.,24.0,0.,24.0,0.,24.0,0.,24.0
1979-07-19 05:14:07.770 ,1,1,0.,24.0,0.,24.0,0.,24.0,0.,24.0
1979-07-19 05:14:31.770 ,2,1,0.,24.0,0.,24.0,0.,24.0,0.,24.0
1979-07-19 05:14:55.770 ,6,1,0.,24.0,0.,24.0,0.,24.0,0.,24.0
1979-07-19 05:15:19.770 ,5,1,0.,24.0,0.,24.0,0.,24.0,0.,24.0
1979-07-19 05:15:43.770 ,1,1,0.,24.0,0.,24.0,0.,24.0,0.,24.0
1979-07-19 05:16:07.770 ,2,1,0.,24.0,0.,24.0,0.,24.0,0.,24.0
1979-07-19 05:16:31.770 ,6,1,0.,24.0,0.,24.0,0.,24.0,0.,24.0
1979-07-19 05:16:55.770 ,5,1,0.,24.0,0.,24.0,0.,24.0,0.,24.0
1979-07-19 05:17:19.770 ,1,1,0.,24.0,0.,24.0,0.,24.0,0.,24.0
1979-07-19 05:17:43.770 ,0,0,0.,24.0,0.,24.0,0.,24.0,0.,24.0
1979-07-19 05:18:07.770 ,0,0,0.,24.0,0.,24.0,0.,24.0,0.,24.0
1979-07-19 05:18:31.770 ,5,1,0.,24.0,0.,24.0,0.,24.0,0.,24.0
1979-07-19 05:18:55.770 ,5,0,0.,24.0,0.,24.0,0.,24.0,0.,24.0
1979-07-19 05:19:19.770 ,4,1,0.,24.0,0.,24.0,0.,24.0,0.,24.0
1979-07-19 05:19:43.770 ,4,0,0.,24.0,0.,24.0,0.,24.0,0.,24.0
1979-07-19 05:20:07.770 ,3,1,0.,24.0,0.,24.0,0.,24.0,0.,24.0
1979-07-19 05:20:31.770 ,3,0,0.,24.0,0.,24.0,0.,24.0,0.,24.0
1979-07-19 05:20:55.770 ,2,1,0.,24.0,0.,24.0,0.,24.0,0.,24.0
1979-07-19 05:21:19.770 ,2,0,0.,24.0,0.,24.0,0.,24.0,0.,24.0
1979-07-19 05:21:43.770 ,1,1,0.,24.0,0.,24.0,0.,24.0,0.,24.0
1979-07-19 05:22:07.770 ,0,0,0.,24.0,0.,24.0,0.,24.0,0.,24.0
1979-07-19 05:22:31.770 ,0,1,0.,24.0,0.,24.0,0.,24.0,0.,24.0
1979-07-19 05:22:55.770 ,0,0,0.,24.0,0.,24.0,0.,24.0,0.,24.0
1979-07-19 05:23:19.770 ,0,1,0.,24.0,0.,24.0,0.,24.0,0.,24.0
1979-07-19 05:23:43.770 ,0,0,0.,24.0,0.,24.0,0.,24.0,0.,24.0
1979-07-19 05:24:07.770 ,1,1,0.,24.0,0.,24.0,0.,24.0,0.,24.0
1979-07-19 05:24:31.770 ,1,0,0.,24.0,0.,24.0,0.,24.0,0.,24.0
1979-07-19 05:24:55.770 ,2,1,0.,24.0,0.,24.0,0.,24.0,0.,24.0
1979-07-19 05:25:19.770 ,2,0,0.,24.0,0.,24.0,0.,24.0,0.,24.0
1979-07-19 05:25:43.770 ,3,1,0.,24.0,0.,24.0,0.,24.0,0.,24.0
1979-07-19 05:26:07.770 ,3,0,0.,24.0,0.,24.0,0.,24.0,0.,24.0
1979-07-19 05:26:31.770 ,4,1,0.,24.0,0.,24.0,0.,24.0,0.,24.0
1979-07-19 05:26:55.770 ,4,0,0.,24.0,0.,24.0,0.,24.0,0.,24.0
1979-07-19 05:27:19.770 ,5,1,0.,24.0,0.,24.0,0.,24.0,0.,24.0
1979-07-19 05:27:43.770 ,5,0,0.,24.0,0.,24.0,0.,24.0,0.,24.0
1979-07-19 05:28:07.770 ,6,1,0.,24.0,0.,24.0,0.,24.0,0.,24.0
1979-07-19 05:28:31.770 ,6,0,0.,24.0,0.,24.0,0.,24.0,0.,24.0
1979-07-19 05:28:55.770 ,7,1,0.,24.0,0.,24.0,0.,24.0,0.,24.0
1979-07-19 05:29:19.770 ,7,0,0.,24.0,0.,24.0,0.,24.0,0.,24.0
1979-07-19 05:29:43.770 ,7,1,0.,24.0,0.,24.0,0.,24.0,0.,24.0
1979-07-19 05:30:07.770 ,7,0,0.,24.0,0.,24.0,0.,24.0,0.,24.0
1979-07-19 05:30:31.770 ,6,1,0.,24.0,0.,24.0,0.,24.0,0.,24.0
1979-07-19 05:30:55.770 ,6,0,0.,24.0,0.,24.0,0.,24.0,0.,24.0
1979-07-19 05:31:19.770 ,5,1,0.,24.0,0.,24.0,0.,24.0,0.,24.0
1979-07-19 05:31:43.770 ,5,0,0.,24.0,0.,24.0,0.,24.0,0.,24.0
1979-07-19 05:32:07.770 ,4,1,0.,24.0,0.,24.0,0.,24.0,0.,24.0
1979-07-19 05:32:31.770 ,4,0,0.,24.0,0.,24.0,0.,24.0,0.,24.0
1979-07-19 05:32:55.770 ,3,1,0.,24.0,0.,24.0,0.,24.0,0.,24.0
1979-07-19 05:33:19.770 ,3,0,0.,24.0,0.,24.0,0.,24.0,0.,24.0
1979-07-19 05:33:43.770 ,2,1,0.,24.0,0.,24.0,0.,24.0,0.,24.0
1979-07-19 05:34:07.770 ,2,0,0.,24.0,0.,24.0,0.,24.0,0.,24.0
1979-07-19 05:34:31.770 ,1,1,0.,24.0,0.,24.0,0.,24.0,0.,24.0